Location: Bayshore Village Mobile Home Park
(26.6945°N, 81.8642°W)
Time: 14:15:04
(UTC+00:00)

Cosmos 1733 - Pass Details

Date: 17 June 2021
Orbit: 503 x 521 km, 82.5° (Epoch: 26 July)

Event Time Altitude Azimuth Distance (km) Brightness Sun altitude
Rises 01:31:19 0° 353° (N) 2,646 7.5 -13.9°
Reaches altitude 10° 01:33:27 10° 352° (N) 1,755 6.5 -14.3°
Maximum altitude 01:37:18 81° 267° (W) 529 3.2 -15.0°
Enters shadow 01:40:19 16° 179° (S) 1,411 5.0 -15.6°
